EB1HRW Weather Reports


Display with metric or nautical units.
time (UTC)temp
F
wind
direction
speed
MPH
gust
MPH
rain 1hr
in
rain 24hr
in
rain mn
in
humidity
%
barometer
mb
20260506183858 61 34 0.0 7.0 0.00 0.00 0.00 47 1010.7
20260506180858 62 49 0.0 8.0 0.00 0.00 0.00 47 1010.6
20260506175357 62 25 4.0 6.0 0.00 0.00 0.00 47 1010.6
20260506173857 62 32 0.0 6.0 0.00 0.00 0.00 47 1010.7
20260506172358 62 33 2.0 7.0 0.00 0.00 0.00 48 1010.8
20260506170858 63 19 2.0 0.0 0.00 0.00 0.00 44 1010.8
20260506162358 62 356 0.0 5.0 0.00 0.00 0.00 45 1011.3
20260506160857 62 20 0.0 3.0 0.00 0.00 0.00 45 1011.4
20260506155358 62 58 0.0 9.0 0.00 0.00 0.00 45 1011.5
20260506153857 62 39 6.0 9.0 0.00 0.00 0.00 46 1011.5
20260506152358 61 13 2.0 5.0 0.00 0.00 0.00 47 1011.6
20260506143901 61 34 6.0 9.0 0.00 0.00 0.00 46 1012.1
20260506140859 62 59 3.0 6.0 0.00 0.00 0.00 49 1012.4
20260506133858 61 42 5.0 5.0 0.00 0.00 0.00 46 1012.8
20260506132359 61 136 0.0 7.0 0.00 0.00 0.00 47 1013.0
20260506130900 61 59 4.0 5.0 0.00 0.00 0.00 49 1013.0
20260506125359 60 247 0.0 5.0 0.00 0.00 0.00 47 1013.2
20260506123859 61 295 0.0 5.0 0.00 0.00 0.00 49 1013.3
20260506122400 60 66 0.0 6.0 0.00 0.00 0.00 50 1013.5
20260506120859 59 274 0.0 6.0 0.00 0.00 0.00 50 1013.5
20260506115359 59 260 1.0 4.0 0.00 0.00 0.00 52 1013.7
20260506113858 57 227 3.0 6.0 0.00 0.00 0.00 54 1014.0
20260506112359 56 188 2.0 8.0 0.00 0.00 0.00 56 1014.1
20260506110859 56 321 4.0 8.0 0.00 0.00 0.00 57 1014.2
20260506105359 55 252 1.0 9.0 0.00 0.00 0.00 60 1014.2
20260506103859 55 54 5.0 10.0 0.00 0.00 0.00 59 1014.3
20260506102357 54 316 1.0 11.0 0.00 0.00 0.00 65 1014.2
20260506100858 53 37 7.0 10.0 0.00 0.00 0.00 60 1014.3
20260506095357 53 38 5.0 9.0 0.00 0.00 0.00 67 1014.3
20260506093857 52 353 4.0 9.0 0.00 0.00 0.00 75 1014.4
20260506092358 51 37 7.0 6.0 0.00 0.00 0.00 77 1014.5
20260506090857 50 27 6.0 6.0 0.00 0.00 0.00 82 1014.5
20260506085357 48 29 4.0 6.0 0.00 0.00 0.00 84 1014.4
20260506082357 47 51 2.0 4.0 0.00 0.00 0.00 85 1014.5
20260506080857 46 52 2.0 0.0 0.00 0.00 0.00 84 1014.5
20260506072357 43 53 0.0 0.0 0.00 0.00 0.00 81 1014.6
20260506070858 42 53 0.0 0.0 0.00 0.00 0.00 80 1014.6
20260506062358 40 34 0.0 0.0 0.00 0.00 0.00 79 1014.3
20260506060857 39 34 0.0 0.0 0.00 0.00 0.00 80 1014.5
20260506050857 40 34 0.0 0.0 0.00 0.00 0.00 80 1013.9
20260506043857 40 34 0.0 0.0 0.00 0.00 0.00 80 1014.0
20260506042358 40 34 0.0 0.0 0.00 0.00 0.00 80 1014.0
20260506040858 40 34 0.0 0.0 0.00 0.00 0.00 80 1014.0
20260506035357 40 34 0.0 0.0 0.00 0.00 0.00 80 1014.1
20260506033857 40 34 0.0 0.0 0.00 0.00 0.00 81 1014.1
20260506032358 41 34 0.0 0.0 0.00 0.00 0.00 81 1014.3
20260506030859 41 34 0.0 0.0 0.00 0.00 0.00 81 1014.3
20260506025357 41 34 0.0 3.0 0.00 0.00 0.00 82 1014.3
20260506023858 41 34 1.0 0.0 0.00 0.00 0.00 84 1014.2
20260506022358 42 34 0.0 0.0 0.00 0.00 0.00 83 1014.2
20260506020857 42 34 0.0 2.0 0.00 0.00 0.00 84 1014.1
20260506015358 42 34 0.0 2.0 0.00 0.00 0.00 84 1014.0
20260506013858 42 34 0.0 0.0 0.00 0.00 0.00 83 1014.2
20260506012357 42 33 0.0 0.0 0.00 0.00 0.00 84 1014.3
20260506010857 43 33 0.0 0.0 0.00 0.00 0.00 84 1014.4
20260506005358 43 33 0.0 0.0 0.00 0.00 0.00 84 1014.4
20260506003857 44 34 0.0 0.0 0.00 0.00 0.00 85 1014.5
20260506002357 44 33 0.0 0.0 0.00 0.00 0.00 85 1014.5
20260506000858 44 34 0.0 0.0 0.00 0.00 0.00 85 1014.4
20260505235357 44 33 0.0 0.0 0.00 0.00 0.00 85 1014.4
20260505233857 44 33 0.0 0.0 0.00 0.00 0.00 85 1014.5
20260505232358 45 34 0.0 0.0 0.00 0.00 0.00 85 1014.4
20260505230900 45 34 0.0 0.0 0.00 0.00 0.00 85 1014.4
20260505225357 46 33 0.0 0.0 0.00 0.00 0.00 85 1014.5
20260505223858 45 33 0.0 0.0 0.00 0.00 0.00 84 1014.5
20260505222358 46 33 0.0 0.0 0.00 0.00 0.00 84 1014.6
20260505220857 47 33 0.0 0.0 0.00 0.00 0.00 84 1014.6
20260505215358 47 34 0.0 0.0 0.00 0.00 0.00 84 1014.6
20260505213857 47 33 0.0 0.0 0.00 0.00 0.00 84 1014.5
20260505212358 48 33 0.0 0.0 0.00 0.00 0.00 80 1014.5
20260505210857 48 33 0.0 0.0 0.00 0.00 0.00 81 1014.5
20260505205358 48 34 0.0 0.0 0.00 0.00 0.00 81 1014.5
20260505203859 48 34 0.0 3.0 0.00 0.00 0.00 80 1014.3
20260505202357 49 34 0.0 0.0 0.00 0.00 0.00 79 1014.2
20260505200858 50 35 0.0 0.0 0.00 0.00 0.00 76 1013.9
20260505195357 50 35 0.0 0.0 0.00 0.00 0.00 76 1013.8
20260505192400 50 44 4.0 12.0 0.00 0.00 0.00 74 1013.3
20260505190858 50 45 3.0 13.0 0.00 0.00 0.00 78 1013.4